Location: Condor
(52.3263°N, 114.5541°W)
Time: 21:04:32
(UTC+00:00)

Oscar 19 - Pass Details

Date: 12 December 2023
Orbit: 771 x 789 km, 98.9° (Epoch: 04 March)

Event Time Altitude Azimuth Distance (km) Brightness Sun altitude
Rises 14:50:37 0° 5° (N) 3,279 13.6 -6.9°
Reaches altitude 10° 14:54:18 10° 338° (NNW) 2,350 12.7 -6.5°
Maximum altitude 14:56:26 13° 313° (NW) 2,167 12.3 -6.2°
Drops below altitude 10° 14:58:35 10° 289° (WNW) 2,350 12.5 -5.9°
Sets 15:02:16 0° 261° (W) 3,278 13.4 -5.4°
